DateTimeUTC,F1_A11,F1_S11,BsB_S11,BsG_S11,BsR_S11,BbsB_S11,BbsG_S11,BbsR_S11,BaB_A11,BaG_A11,BaR_A11,Tu_S11,T_S11,Uu_S11,U_S11,P_S11,T1_A11
2021-05-15T11:00:00Z,00040200,20000000,,,,,,,-000.14,0000.42,0000.22,15.2,22.1,02.3,01.5,0674.2,30.8
2021-05-15T11:01:00Z,00040200,20000000,,,,,,,0000.47,-000.10,0000.06,15.2,22.1,02.3,01.5,0674.2,30.8
2021-05-15T11:02:00Z,00040200,20000000,,,,,,,0000.01,0000.35,0000.15,15.2,22.1,02.3,01.5,0674.1,30.8
2021-05-15T11:03:00Z,00040200,60010000,,,,,,,0001.39,0000.99,0000.91,15.2,22.1,02.3,01.5,0674.1,30.7
2021-05-15T11:04:00Z,00040200,40000000,0001.78,0001.35,0000.67,-000.17,0000.23,0000.19,0000.98,0000.91,0000.64,15.3,21.9,02.8,01.9,0675.1,30.7
2021-05-15T11:05:00Z,00040200,00000000,0001.77,0001.12,0000.65,0000.65,0000.49,0000.33,0000.91,0000.66,0000.32,15.3,21.8,03.0,02.0,0675.2,30.7
2021-05-15T11:06:00Z,00040200,00000000,0002.05,0001.03,0000.93,0000.17,0000.29,0000.50,0000.46,0000.77,0000.64,15.3,21.8,03.1,02.0,0675.2,30.7
2021-05-15T11:07:00Z,00040200,00000000,0001.98,0001.15,0000.87,0000.34,0000.42,0000.06,0000.75,0000.54,0000.55,15.3,21.7,03.0,02.0,0675.2,30.7
2021-05-15T11:08:00Z,00040200,00000000,0002.27,0001.38,0000.97,0000.31,0000.77,0000.20,0000.78,0000.63,0000.48,15.2,21.7,03.1,02.0,0675.2,30.7
2021-05-15T11:09:00Z,00040200,00000000,0002.02,0001.51,0000.78,0000.13,0000.46,0000.20,0000.96,0000.64,0000.39,15.2,21.7,03.1,02.1,0675.2,30.7
2021-05-15T11:10:00Z,00040200,00000000,0002.03,0001.41,0000.93,0000.70,0000.43,0000.00,0000.54,0000.95,0000.75,15.2,21.7,03.2,02.1,0675.2,30.7
2021-05-15T11:11:00Z,00040200,00000000,0001.49,0001.72,0000.71,0000.28,0000.46,0000.02,0000.95,0000.57,0000.57,15.3,21.7,03.2,02.2,0675.2,30.8
2021-05-15T11:12:00Z,00040200,00000000,0001.71,0001.49,0000.88,0000.08,0000.31,0000.23,0000.25,0000.53,0000.43,15.4,21.8,03.2,02.1,0675.2,30.8
2021-05-15T11:13:00Z,00040200,00000000,0001.54,0001.39,0000.61,0000.33,0000.11,0000.23,0000.48,0000.17,0000.22,15.4,21.8,03.0,02.0,0675.2,30.8
2021-05-15T11:14:00Z,00040200,00000000,0001.36,0000.98,0000.88,0000.34,0000.29,0000.03,0000.46,0000.40,0000.34,15.5,21.8,03.0,02.0,0675.2,30.8
2021-05-15T11:15:00Z,00040200,00000000,0001.56,0001.10,0000.76,0000.09,0000.16,0000.23,0000.12,0000.15,0000.36,15.5,21.9,02.9,02.0,0675.2,30.8
2021-05-15T11:16:00Z,00040200,00000000,0001.84,0001.49,0000.76,0000.19,0000.59,0000.48,0000.37,0000.32,-000.25,15.5,21.9,02.8,01.9,0675.2,30.8
2021-05-15T11:17:00Z,00040200,00000000,0001.82,0001.22,0000.81,0000.69,0000.47,0000.44,0000.71,0000.64,0000.80,15.5,21.8,02.9,01.9,0675.2,30.8
2021-05-15T11:18:00Z,00040200,00000000,0001.49,0001.81,0001.14,0000.22,0000.37,0000.51,0001.29,0001.31,0000.33,15.5,21.8,02.8,01.9,0675.2,30.8
2021-05-15T11:19:00Z,00040200,00000000,0002.67,0001.88,0001.26,0000.29,0000.32,0000.12,0001.43,0001.27,0001.08,15.5,21.8,03.0,02.0,0675.2,30.8
2021-05-15T11:20:00Z,00040200,00000000,0002.68,0001.64,0000.82,-000.02,0000.35,0000.22,0001.28,0001.29,0001.16,15.4,21.8,03.2,02.1,0675.2,30.7
2021-05-15T11:21:00Z,00040200,00000000,0001.94,0001.72,0000.93,0000.26,0000.64,0000.20,0001.18,0001.20,0000.94,15.4,21.8,03.3,02.2,0675.2,30.7
2021-05-15T11:22:00Z,00040200,00000000,0003.07,0001.44,0001.15,0000.03,0000.21,0000.20,0000.79,0000.36,0000.52,15.4,21.8,03.4,02.3,0675.2,30.7
2021-05-15T11:23:00Z,00040200,00000000,0002.73,0001.52,0001.06,-000.01,0000.46,0000.19,0000.98,0000.73,0000.08,15.4,21.7,03.4,02.3,0675.3,30.7
2021-05-15T11:24:00Z,00040200,00000000,0002.13,0001.49,0000.87,0000.67,0000.27,0000.25,0000.75,0000.57,0001.10,15.3,21.7,03.3,02.2,0675.3,30.7
2021-05-15T11:25:00Z,00040200,00000000,0002.11,0001.79,0001.10,0000.20,0000.24,0000.28,0000.62,0001.23,0000.37,15.4,21.7,03.4,02.3,0675.2,30.7
2021-05-15T11:26:00Z,00040200,00000000,0002.29,0001.98,0001.08,0000.28,0000.42,0000.17,0001.09,0000.55,0000.59,15.4,21.7,03.3,02.2,0675.3,30.8
2021-05-15T11:27:00Z,00040200,00000000,0002.29,0001.74,0001.21,0000.02,0000.38,0000.22,0000.80,0000.68,0000.73,15.5,21.8,03.2,02.2,0675.3,30.8
2021-05-15T11:28:00Z,00040200,00000000,0002.66,0001.61,0000.94,0000.53,0000.51,0000.01,0000.53,0000.51,0000.05,15.5,21.8,03.1,02.1,0675.3,30.8
2021-05-15T11:29:00Z,00040200,00000000,0001.73,0001.31,0000.83,0000.31,0000.67,0000.13,0000.77,0000.74,0000.81,15.6,21.9,03.2,02.1,0675.3,30.8
2021-05-15T11:30:00Z,00040200,00000000,0002.55,0001.31,0001.07,-000.25,0000.46,0000.13,0000.46,0000.52,0000.30,15.6,21.9,03.2,02.1,0675.3,30.8
2021-05-15T11:31:00Z,00040200,00000000,0001.69,0001.43,0000.75,-000.23,0000.42,0000.13,0000.33,0000.18,0000.10,15.6,21.9,03.0,02.0,0675.3,30.8
2021-05-15T11:32:00Z,00040200,00000000,0001.23,0000.98,0000.80,0000.52,0000.20,0000.20,0000.32,0000.20,0000.31,15.6,21.9,02.9,02.0,0675.3,30.8
2021-05-15T11:33:00Z,00040200,00000000,0001.61,0001.08,0000.78,-000.13,0000.16,0000.02,0000.32,0000.52,0000.15,15.6,21.9,02.8,01.9,0675.3,30.8
2021-05-15T11:34:00Z,00040200,00000000,0002.25,0001.15,0000.80,0000.70,0000.32,0000.14,0000.27,0000.29,0000.24,15.5,21.8,02.7,01.8,0675.4,30.8
2021-05-15T11:35:00Z,00040200,00000000,0001.36,0001.33,0000.86,0000.66,0000.21,0000.41,0000.12,0000.05,-000.17,15.5,21.8,02.6,01.8,0675.4,30.7
2021-05-15T11:36:00Z,00040200,00000000,0001.65,0001.42,0001.00,-000.22,0000.15,0000.25,0000.70,0000.49,0000.89,15.5,21.8,02.5,01.7,0675.4,30.7
2021-05-15T11:37:00Z,00040200,00000000,0001.36,0001.60,0000.56,0000.50,0000.06,0000.07,0001.12,0000.71,0000.31,15.5,21.8,02.5,01.7,0675.4,30.7
2021-05-15T11:38:00Z,00040200,00000000,0001.93,0001.25,0000.50,0000.28,0000.31,0000.08,0000.32,0000.51,0000.30,15.4,21.8,02.5,01.7,0675.4,30.7
2021-05-15T11:39:00Z,00040200,00000000,0002.05,0001.21,0000.65,0000.24,0000.45,0000.20,0000.56,0000.32,0000.44,15.4,21.8,02.4,01.6,0675.4,30.7
2021-05-15T11:40:00Z,00040200,01000000,0001.44,0001.29,0000.76,0000.32,0000.42,0000.26,0000.29,0000.70,0000.34,15.4,21.8,02.4,01.6,0675.4,30.7
2021-05-15T11:41:00Z,00040200,00000000,0001.76,0001.23,0000.85,0000.70,0000.42,0000.42,-000.01,-000.54,0000.01,15.5,21.8,02.2,01.5,0675.4,30.8
2021-05-15T11:42:00Z,00040200,00000000,0001.41,0001.26,0000.71,0000.14,0000.35,0000.28,-000.39,-000.10,0000.07,15.6,21.8,02.0,01.4,0675.4,30.8
2021-05-15T11:43:00Z,00040200,01000000,0001.62,0001.17,0000.56,0000.38,0000.09,0000.19,0000.37,0000.60,-000.09,15.6,21.9,01.8,01.2,0675.4,30.8
2021-05-15T11:44:00Z,00040200,01000000,0002.33,0001.34,0000.82,0000.48,0000.23,-000.04,0000.45,0000.38,0000.45,15.7,21.9,01.7,01.2,0675.4,30.8
2021-05-15T11:45:00Z,00040200,01000000,0001.47,0001.32,0000.74,0000.50,0000.24,0000.20,0000.66,0000.78,0000.28,15.7,21.9,01.9,01.3,0675.4,30.8
2021-05-15T11:46:00Z,00040200,01000000,0001.56,0001.81,0000.96,-000.11,0000.18,0000.36,0000.66,0000.32,0000.42,15.7,21.9,01.7,01.1,0675.4,30.8
2021-05-15T11:47:00Z,00040200,01000000,0001.77,0001.54,0000.88,0000.39,0000.34,0000.24,0000.26,0000.18,0000.18,15.7,21.9,01.7,01.2,0675.4,30.8
2021-05-15T11:48:00Z,00040200,01000000,0002.72,0001.24,0001.06,-000.13,0000.18,0000.25,0000.32,0000.06,0000.08,15.7,21.9,01.6,01.1,0675.4,30.8
2021-05-15T11:49:00Z,00040200,01000000,0001.24,0001.36,0000.83,0000.29,0000.19,0000.35,0000.20,0000.21,0000.06,15.7,21.9,01.4,00.9,0675.4,30.8
2021-05-15T11:50:00Z,00040200,01000000,0001.75,0001.33,0001.07,0000.56,0000.37,0000.42,0000.46,0000.48,0000.38,15.6,21.9,01.3,00.9,0675.4,30.8
2021-05-15T11:51:00Z,00040200,01000000,0001.00,0001.11,0000.55,0000.23,0000.48,0000.11,0000.26,0000.11,0000.08,15.6,21.9,01.3,00.8,0675.4,30.7
2021-05-15T11:52:00Z,00040200,01000000,0002.18,0001.45,0000.77,-000.42,0000.39,0000.28,-000.06,0000.04,0000.49,15.6,21.8,01.1,00.7,0675.4,30.7
2021-05-15T11:53:00Z,00040200,01000000,0001.90,0001.23,0001.07,-000.04,0000.41,0000.25,0000.65,0000.76,-000.39,15.6,21.8,01.1,00.7,0675.4,30.7
2021-05-15T11:54:00Z,00040200,01000000,0002.58,0001.51,0000.91,0000.53,0000.37,0000.25,0000.70,0000.78,0000.83,15.5,21.8,00.8,00.6,0675.4,30.7
2021-05-15T11:55:00Z,00040200,01000000,0001.95,0001.46,0000.91,0000.37,0000.49,0000.36,0000.40,0000.51,0000.27,15.6,21.8,00.9,00.6,0675.4,30.8
2021-05-15T11:56:00Z,00040200,01000000,0002.42,0001.79,0000.93,0000.14,0000.51,0000.32,0000.70,0000.23,0000.51,15.6,21.8,00.9,00.6,0675.4,30.8
2021-05-15T11:57:00Z,00040200,41000000,,,,,,,0002.22,0001.76,0001.61,15.7,21.9,00.6,00.4,0675.4,30.8
2021-05-15T11:58:00Z,00040200,61000000,,,,,,,-001.23,-000.94,-000.62,15.5,22.1,01.2,00.8,0674.4,30.8
2021-05-15T11:59:00Z,00040200,21000000,,,,,,,-000.71,-000.38,-000.36,15.5,22.2,01.1,00.8,0674.3,30.8
